Philadelphia, PA

4:12 AM EDT on May 21, 2018 (GMT -0400)
Philadelphia International

Weather History for KPHL - February, 2014

Change the Weather History Date:

Monday, February 17, 2014

  Actual Average Record
Temperature  
Mean Temperature 27 °F 36 °F  
Max Temperature 34 °F 44 °F 68 °F (1976)
Min Temperature 19 °F 28 °F -2 °F (1896)
Degree Days  
Heating Degree Days 38 29  
Month to date heating degree days 591 516  
Since 1 July heating degree days 3335 3179  
Cooling Degree Days 0 0  
Month to date cooling degree days 0 0  
Year to date cooling degree days 0 0  
Moisture  
Dew Point 6 °F    
Average Humidity 45    
Maximum Humidity 60    
Minimum Humidity 29    
Precipitation  
Precipitation 0.00 in 0.09 in 1.10 in (1902)
Month to date precipitation 4.35 1.60  
Year to date precipitation 7.90 4.63  
Snow  
Snow 0.00 in 0.40 in 11.00 in (1902)
Month to date snowfall 18.3 5.9  
Since 1 July snowfall 55.4 16.1  
Snow Depth 6.00 in    
Sea Level Pressure  
Sea Level Pressure 30.36 in    
Wind  
Wind Speed 7 mph (NW)    
Max Wind Speed 18 mph    
Max Gust Speed 23 mph    
Visibility 10 miles    
Events      
T = Trace of Precipitation, MM = Missing Value Source: NWS Daily Summary

Daily Weather History Graph

Daily Weather History Graph

Search for Another Location

Airport or City:

Astronomy

Feb. 17, 2014 Rise Set
Actual Time 6:51 AM EST 5:39 PM EST
Civil Twilight 6:23 AM EST 6:07 PM EST
Nautical Twilight 5:51 AM EST 6:38 PM EST
Astronomical Twilight 5:20 AM EST 7:09 PM EST
Moon 8:31 PM EST (2/17) 7:50 AM EST (2/17)
Length of Visible Light 11h 43m
Length of Day
10h 48m
Waning Gibbous, 93% of the Moon is Illuminated
Feb 17
Waning Gibbous
Feb 22
Last Quarter
Mar 1
New
Mar 8
First Quarter
Mar 16
Full

Hourly Weather History & Observations

Time (EST) Temp. Windchill Dew Point Humidity Pressure Visibility Wind Dir Wind Speed Gust Speed Precip Events Conditions
12:54 AM 25.0 °F 13.6 °F 12.0 °F 58% 30.21 in 10.0 mi NW 12.7 mph - N/A   Clear
1:54 AM 23.0 °F 13.9 °F 10.9 °F 60% 30.24 in 10.0 mi NNW 8.1 mph - N/A   Clear
2:54 AM 23.0 °F 10.6 °F 9.0 °F 55% 30.27 in 10.0 mi NNW 13.8 mph 19.6 mph N/A   Partly Cloudy
3:54 AM 21.0 °F 8.1 °F 6.1 °F 53% 30.30 in 10.0 mi NNW 13.8 mph 19.6 mph N/A   Partly Cloudy
4:54 AM 21.0 °F 8.6 °F 5.0 °F 50% 30.32 in 10.0 mi NW 12.7 mph - N/A   Clear
5:54 AM 19.0 °F 9.0 °F 6.1 °F 57% 30.34 in 10.0 mi NNW 8.1 mph - N/A   Clear
6:54 AM 19.0 °F 11.1 °F 3.9 °F 52% 30.37 in 10.0 mi NW 5.8 mph - N/A   Clear
7:54 AM 19.0 °F 10.0 °F 3.0 °F 50% 30.41 in 10.0 mi NW 6.9 mph - N/A   Clear
8:54 AM 21.0 °F 9.3 °F 3.0 °F 46% 30.45 in 10.0 mi NW 11.5 mph - N/A   Partly Cloudy
9:54 AM 21.9 °F 9.8 °F 1.9 °F 42% 30.45 in 10.0 mi WNW 12.7 mph - N/A   Partly Cloudy
10:54 AM 24.1 °F 14.4 °F 3.0 °F 40% 30.45 in 10.0 mi NNW 9.2 mph - N/A   Partly Cloudy
11:54 AM 26.1 °F 18.4 °F 3.0 °F 37% 30.43 in 10.0 mi NNW 6.9 mph - N/A   Partly Cloudy
12:54 PM 28.0 °F 19.3 °F 3.9 °F 36% 30.40 in 10.0 mi NNW 9.2 mph - N/A   Partly Cloudy
1:54 PM 30.0 °F 23.2 °F 3.0 °F 32% 30.39 in 10.0 mi NW 6.9 mph - N/A   Partly Cloudy
2:54 PM 30.9 °F 26.2 °F 3.9 °F 32% 30.40 in 10.0 mi NW 4.6 mph - N/A   Scattered Clouds
3:54 PM 34.0 °F - 5.0 °F 30% 30.38 in 10.0 mi Calm Calm - N/A   Mostly Cloudy
4:54 PM 32.0 °F 28.7 °F 6.1 °F 34% 30.38 in 10.0 mi SE 3.5 mph - N/A   Mostly Cloudy
5:54 PM 30.0 °F - 5.0 °F 35% 30.37 in 10.0 mi Calm Calm - N/A   Scattered Clouds
6:54 PM 28.9 °F - 5.0 °F 36% 30.38 in 10.0 mi Calm Calm - N/A   Mostly Cloudy
7:54 PM 28.0 °F 22.8 °F 9.0 °F 45% 30.36 in 10.0 mi South 4.6 mph - N/A   Mostly Cloudy
8:54 PM 25.0 °F 20.7 °F 10.9 °F 55% 30.35 in 10.0 mi ESE 3.5 mph - N/A   Mostly Cloudy
9:54 PM 27.0 °F - 8.1 °F 45% 30.34 in 10.0 mi Calm Calm - N/A   Overcast
10:54 PM 28.0 °F 24.2 °F 10.0 °F 47% 30.33 in 10.0 mi SW 3.5 mph - N/A   Overcast
11:54 PM 27.0 °F 23.0 °F 10.9 °F 51% 30.32 in 10.0 mi South 3.5 mph - N/A   Overcast